timestamp,wind_dir_avg,wind_spd_avg,wind_spd_max_dir,wind_spd_gust,battery_voltage,lat,long
2023-10-25 00:04:01+00:00,242.0,6.62,237.0,7.64,12.49,47.59359,-54.27349
2023-10-25 00:14:01+00:00,244.0,7.11,244.0,7.75,12.41,47.59359,-54.27349
2023-10-25 00:24:01+00:00,240.0,7.2,235.0,7.76,12.41,47.59359,-54.27349
2023-10-25 00:34:01+00:00,245.0,6.62,245.0,7.16,12.41,47.59359,-54.27349
2023-10-25 00:44:01+00:00,236.0,6.95,238.0,7.49,12.41,47.59359,-54.27349
2023-10-25 00:54:01+00:00,239.0,6.63,241.0,7.42,12.41,47.59359,-54.27349
2023-10-25 01:04:01+00:00,238.0,6.09,234.0,6.91,12.41,47.59359,-54.27349
2023-10-25 01:14:01+00:00,250.0,5.93,243.0,6.51,12.41,47.59359,-54.27349
2023-10-25 01:24:01+00:00,239.0,6.05,240.0,6.51,12.41,47.59359,-54.27349
2023-10-25 01:34:01+00:00,236.0,5.52,237.0,6.04,12.41,47.59359,-54.27349
2023-10-25 01:44:01+00:00,240.0,5.83,241.0,6.98,12.41,47.59359,-54.27349
2023-10-25 01:54:01+00:00,250.0,5.67,254.0,6.68,12.41,47.59359,-54.27349
2023-10-25 02:04:01+00:00,248.0,5.75,243.0,6.71,12.41,47.59359,-54.27349
2023-10-25 02:14:01+00:00,247.0,6.91,256.0,8.01,12.41,47.59359,-54.27349
2023-10-25 02:24:01+00:00,315.0,0.01,255.0,0.0,12.41,47.59359,-54.27349
2023-10-25 02:34:01+00:00,251.0,6.55,256.0,7.24,12.41,47.59359,-54.27349
2023-10-25 02:44:01+00:00,256.0,6.57,257.0,6.59,12.41,47.59359,-54.27349
2023-10-25 02:54:01+00:00,315.0,0.01,284.0,0.0,12.41,47.59359,-54.27349
2023-10-25 03:04:01+00:00,256.0,5.04,256.0,5.23,12.41,47.59359,-54.27349
2023-10-25 03:14:00+00:00,315.0,0.01,281.0,0.0,12.41,47.59359,-54.27349
2023-10-25 03:24:00+00:00,278.0,6.3,280.0,6.83,12.41,47.59359,-54.27349
2023-10-25 03:34:00+00:00,254.0,4.96,257.0,5.34,12.41,47.59359,-54.27349
2023-10-25 03:44:00+00:00,264.0,4.99,264.0,5.01,12.41,47.59359,-54.27349
2023-10-25 03:54:00+00:00,252.0,4.76,252.0,4.77,12.41,47.59359,-54.27349
2023-10-25 04:04:00+00:00,251.0,4.88,253.0,5.39,12.41,47.59359,-54.27349
2023-10-25 04:14:00+00:00,251.0,4.82,252.0,4.86,12.41,47.59359,-54.27349
2023-10-25 04:24:00+00:00,283.0,5.18,284.0,5.19,12.41,47.59359,-54.27349
2023-10-25 04:34:00+00:00,315.0,0.01,254.0,0.0,12.41,47.59359,-54.27349
2023-10-25 04:44:00+00:00,253.0,6.12,253.0,6.72,12.41,47.59359,-54.27349
2023-10-25 04:54:00+00:00,251.0,5.55,253.0,6.31,12.41,47.59359,-54.27349
2023-10-25 05:04:00+00:00,248.0,4.45,249.0,4.47,12.41,47.59359,-54.27349
2023-10-25 05:14:01+00:00,252.0,5.45,256.0,6.44,12.33,47.59359,-54.27349
2023-10-25 05:24:01+00:00,234.0,5.79,235.0,6.53,12.33,47.59359,-54.27349
2023-10-25 05:34:01+00:00,240.0,5.38,247.0,6.54,12.33,47.59359,-54.27349
2023-10-25 05:44:01+00:00,230.0,5.07,234.0,6.21,12.33,47.59359,-54.27349
2023-10-25 05:54:01+00:00,230.0,4.29,232.0,5.11,12.33,47.59359,-54.27349
2023-10-25 06:04:01+00:00,246.0,5.57,247.0,6.49,12.33,47.59359,-54.27349
2023-10-25 06:14:01+00:00,246.0,4.55,247.0,4.56,12.33,47.59359,-54.27349
2023-10-25 06:24:01+00:00,235.0,4.99,238.0,5.64,12.33,47.59359,-54.27349
2023-10-25 06:34:01+00:00,315.0,0.01,245.0,0.0,12.33,47.59359,-54.27349
2023-10-25 06:44:01+00:00,222.0,4.64,222.0,5.34,12.33,47.59359,-54.27349
2023-10-25 06:54:01+00:00,225.0,3.96,214.0,5.19,12.33,47.59359,-54.27349
2023-10-25 07:04:01+00:00,234.0,4.04,248.0,5.63,12.33,47.59359,-54.27349
2023-10-25 07:14:00+00:00,228.0,4.0,244.0,4.88,12.33,47.59359,-54.27349
2023-10-25 07:24:00+00:00,241.0,4.11,244.0,4.3,12.33,47.59359,-54.27349
2023-10-25 07:34:00+00:00,242.0,4.68,250.0,5.27,12.33,47.59359,-54.27349
2023-10-25 07:44:00+00:00,226.0,4.42,248.0,7.13,12.33,47.59359,-54.27349
2023-10-25 07:54:00+00:00,228.0,3.91,240.0,4.94,12.33,47.59359,-54.27349
2023-10-25 08:04:00+00:00,241.0,4.79,247.0,5.55,12.33,47.59359,-54.27349
2023-10-25 08:14:00+00:00,238.0,4.95,239.0,5.57,12.33,47.59359,-54.27349
2023-10-25 08:24:00+00:00,249.0,5.46,250.0,5.9,12.33,47.59359,-54.27349
2023-10-25 08:34:00+00:00,238.0,5.8,247.0,8.1,12.33,47.59359,-54.27349
2023-10-25 08:44:00+00:00,252.0,6.38,254.0,6.88,12.33,47.59359,-54.27349
2023-10-25 08:54:00+00:00,247.0,6.49,251.0,7.19,12.33,47.59359,-54.27349
2023-10-25 09:04:00+00:00,240.0,6.56,246.0,7.25,12.33,47.59359,-54.27349
2023-10-25 09:14:00+00:00,241.0,6.61,242.0,7.19,12.33,47.59359,-54.27349
2023-10-25 09:24:00+00:00,241.0,6.51,243.0,7.34,12.33,47.59359,-54.27349
2023-10-25 09:34:00+00:00,232.0,6.42,234.0,7.19,12.33,47.59359,-54.27349
2023-10-25 09:44:00+00:00,237.0,5.27,236.0,5.75,12.33,47.59359,-54.27349
2023-10-25 09:54:00+00:00,247.0,6.08,250.0,6.6,12.33,47.59359,-54.27349
2023-10-25 10:04:00+00:00,247.0,4.41,248.0,4.42,12.33,47.59359,-54.27349
2023-10-25 10:14:00+00:00,244.0,5.28,243.0,5.33,12.25,47.59359,-54.27349
2023-10-25 10:24:00+00:00,265.0,6.24,265.0,6.25,12.25,47.59359,-54.27349
2023-10-25 10:34:00+00:00,245.0,5.34,251.0,6.07,12.25,47.59359,-54.27349
2023-10-25 10:44:00+00:00,235.0,4.99,238.0,5.53,12.25,47.59359,-54.27349
2023-10-25 10:54:00+00:00,227.0,5.08,229.0,5.73,12.25,47.59359,-54.27349
2023-10-25 11:04:00+00:00,228.0,5.1,228.0,5.88,12.25,47.59359,-54.27349
2023-10-25 11:14:00+00:00,236.0,5.86,242.0,6.6,12.41,47.59359,-54.27349
2023-10-25 11:24:00+00:00,235.0,6.11,235.0,6.97,12.41,47.59359,-54.27349
2023-10-25 11:34:00+00:00,229.0,5.49,233.0,6.31,12.41,47.59359,-54.27349
2023-10-25 11:44:00+00:00,226.0,5.69,227.0,6.63,12.41,47.59359,-54.27349
2023-10-25 11:54:00+00:00,233.0,5.5,239.0,6.42,12.41,47.59359,-54.27349
2023-10-25 12:04:00+00:00,225.0,5.62,216.0,6.38,12.41,47.59359,-54.27349
2023-10-25 12:14:00+00:00,222.0,5.9,229.0,6.78,14.32,47.59359,-54.27349
2023-10-25 12:24:00+00:00,225.0,6.01,225.0,6.79,14.32,47.59359,-54.27349
2023-10-25 12:34:00+00:00,225.0,7.07,223.0,7.99,14.32,47.59359,-54.27349
2023-10-25 12:44:00+00:00,222.0,7.48,218.0,8.48,14.32,47.59359,-54.27349
2023-10-25 12:54:00+00:00,230.0,6.35,229.0,6.99,14.32,47.59359,-54.27349
2023-10-25 13:04:00+00:00,234.0,7.64,233.0,8.63,14.32,47.59359,-54.27349
2023-10-25 13:14:00+00:00,229.0,6.92,231.0,8.28,13.6,47.59359,-54.27349
2023-10-25 13:24:00+00:00,234.0,7.2,234.0,8.09,13.6,47.59359,-54.27349
2023-10-25 13:34:00+00:00,235.0,7.94,237.0,9.27,13.6,47.59359,-54.27349
2023-10-25 13:44:00+00:00,239.0,12.04,250.0,19.03,13.6,47.59359,-54.27349
2023-10-25 13:54:00+00:00,238.0,9.28,243.0,12.38,13.6,47.59359,-54.27349
2023-10-25 14:04:00+00:00,243.0,7.84,238.0,9.16,13.6,47.59359,-54.27349
2023-10-25 14:14:00+00:00,237.0,8.01,238.0,8.96,13.53,47.59359,-54.27349
2023-10-25 14:24:00+00:00,231.0,8.23,231.0,9.93,13.53,47.59359,-54.27349
2023-10-25 14:34:00+00:00,244.0,9.02,244.0,11.01,13.53,47.59359,-54.27349
2023-10-25 14:44:00+00:00,245.0,6.59,250.0,7.68,13.53,47.59359,-54.27349
2023-10-25 14:54:00+00:00,246.0,7.08,238.0,8.18,13.53,47.59359,-54.27349
2023-10-25 15:04:00+00:00,231.0,8.02,235.0,8.86,13.53,47.59359,-54.27349
2023-10-25 15:14:00+00:00,231.0,7.12,233.0,8.19,13.92,47.59359,-54.27349
2023-10-25 15:24:00+00:00,229.0,7.52,223.0,8.61,13.92,47.59359,-54.27349
2023-10-25 15:34:00+00:00,232.0,8.17,231.0,9.18,13.92,47.59359,-54.27349
2023-10-25 15:44:00+00:00,222.0,7.41,219.0,7.95,13.92,47.59359,-54.27349
2023-10-25 15:54:00+00:00,234.0,6.99,239.0,8.08,13.92,47.59359,-54.27349
2023-10-25 16:04:00+00:00,240.0,8.52,242.0,10.4,13.92,47.59359,-54.27349
2023-10-25 16:14:00+00:00,249.0,8.26,252.0,9.09,13.6,47.59359,-54.27349
2023-10-25 16:24:00+00:00,240.0,9.75,242.0,11.79,13.6,47.59359,-54.27349
2023-10-25 16:34:00+00:00,247.0,8.73,254.0,10.5,13.6,47.59359,-54.27349
2023-10-25 16:44:00+00:00,253.0,9.45,244.0,11.05,13.6,47.59359,-54.27349
2023-10-25 16:54:00+00:00,260.0,8.91,260.0,9.91,13.6,47.59359,-54.27349
2023-10-25 17:04:00+00:00,256.0,9.22,257.0,10.31,13.6,47.59359,-54.27349
2023-10-25 17:14:00+00:00,252.0,9.04,254.0,10.67,13.76,47.59359,-54.27349
2023-10-25 17:24:00+00:00,259.0,9.69,263.0,10.76,13.76,47.59359,-54.27349
2023-10-25 17:34:00+00:00,256.0,9.39,253.0,10.71,13.76,47.59359,-54.27349
2023-10-25 17:44:00+00:00,255.0,7.59,257.0,9.18,13.76,47.59359,-54.27349
2023-10-25 17:54:00+00:00,254.0,10.04,256.0,11.42,13.76,47.59359,-54.27349
2023-10-25 18:04:00+00:00,257.0,10.03,260.0,11.26,13.76,47.59359,-54.27349
2023-10-25 18:14:01+00:00,254.0,9.62,260.0,10.46,13.44,47.59359,-54.27349
2023-10-25 18:24:01+00:00,253.0,7.85,252.0,9.18,13.44,47.59359,-54.27349
2023-10-25 18:34:01+00:00,245.0,8.58,247.0,9.83,13.44,47.59359,-54.27349
2023-10-25 18:44:01+00:00,240.0,7.35,241.0,8.85,13.44,47.59359,-54.27349
2023-10-25 18:54:01+00:00,250.0,7.67,258.0,8.97,13.44,47.59359,-54.27349
2023-10-25 19:04:01+00:00,239.0,6.96,239.0,8.63,13.44,47.59359,-54.27349
2023-10-25 19:14:01+00:00,234.0,7.65,240.0,8.79,13.6,47.59359,-54.27349
2023-10-25 19:24:01+00:00,231.0,7.36,234.0,8.81,13.6,47.59359,-54.27349
2023-10-25 19:34:01+00:00,236.0,6.44,240.0,7.19,13.6,47.59359,-54.27349
2023-10-25 19:44:01+00:00,241.0,6.83,237.0,7.92,13.6,47.59359,-54.27349
2023-10-25 19:54:01+00:00,274.0,8.87,276.0,10.39,13.6,47.59359,-54.27349
2023-10-25 20:04:01+00:00,268.0,6.69,272.0,7.76,13.6,47.59359,-54.27349
2023-10-25 20:14:01+00:00,267.0,6.64,268.0,7.66,13.05,47.59359,-54.27349
2023-10-25 20:24:01+00:00,263.0,6.92,265.0,7.73,13.05,47.59359,-54.27349
2023-10-25 20:34:01+00:00,259.0,5.31,259.0,5.89,13.05,47.59359,-54.27349
2023-10-25 20:44:01+00:00,251.0,5.96,247.0,6.56,13.05,47.59359,-54.27349
2023-10-25 20:54:01+00:00,247.0,6.28,249.0,7.72,13.05,47.59359,-54.27349
2023-10-25 21:04:01+00:00,242.0,5.68,243.0,6.71,13.05,47.59359,-54.27349
2023-10-25 21:14:01+00:00,238.0,5.88,236.0,6.34,12.57,47.59359,-54.27349
2023-10-25 21:24:01+00:00,238.0,5.93,238.0,6.52,12.57,47.59359,-54.27349
2023-10-25 21:34:01+00:00,241.0,5.75,235.0,6.14,12.57,47.59359,-54.27349
2023-10-25 21:44:01+00:00,249.0,5.89,249.0,6.64,12.57,47.59359,-54.27349
2023-10-25 21:54:01+00:00,248.0,5.54,240.0,6.08,12.57,47.59359,-54.27349
2023-10-25 22:04:01+00:00,248.0,5.6,252.0,6.18,12.57,47.59359,-54.27349
2023-10-25 22:14:01+00:00,240.0,5.62,238.0,5.74,12.49,47.59359,-54.27349
2023-10-25 22:24:01+00:00,315.0,0.01,243.0,0.0,12.49,47.59359,-54.27349
2023-10-25 22:34:01+00:00,236.0,5.91,232.0,6.26,12.49,47.59359,-54.27349
2023-10-25 22:44:01+00:00,236.0,6.33,238.0,6.76,12.49,47.59359,-54.27349
2023-10-25 22:54:01+00:00,238.0,6.28,236.0,7.0,12.49,47.59359,-54.27349
2023-10-25 23:04:01+00:00,239.0,6.04,242.0,6.54,12.49,47.59359,-54.27349
2023-10-25 23:14:00+00:00,245.0,5.26,245.0,5.51,12.49,47.59359,-54.27349
2023-10-25 23:24:00+00:00,246.0,5.48,243.0,5.85,12.49,47.59359,-54.27349
2023-10-25 23:34:00+00:00,242.0,5.72,241.0,6.27,12.49,47.59359,-54.27349
2023-10-25 23:44:00+00:00,241.0,5.68,240.0,6.2,12.49,47.59359,-54.27349
2023-10-25 23:54:00+00:00,237.0,5.75,231.0,6.1,12.49,47.59359,-54.27349
